ACS3

Last updated on Thu Oct 30 2025 00:02:16 GMT+0000 (Coordinated Universal Time)

1 59588U 24077B 25302.51145289 .00010085 00000+0 92336-2 0 9990 2 59588 97.3420 267.9024 0030882 30.6447 329.6509 13.82867852 76026
UTC large
Height (km)
Speed (km/s)
/
Latitude / Longitude
Inclination (degrees)
Orbital Period (minutes)
Azimuth
Elevation
Range (km)
Doppler Factor

Next 0 passes for location: London (51.5072 / 0.1276)

Sorry there are no passes over London.